When you browse on this site, cookies collect data to enhance your experience and personalize the content and advertising you see.
Visit our Privacy Policy to learn more. By continuing to use the site, you agree to this use of cookies and data.
  • In United Kingdom
  • List of Countries
  • For 7 days
  • Water Temperature
  • Satellite Maps
  • Weather Map
  • Weather Widgets
  • user-avatar
    Login

    Hourly Weather Lusaka

    Today, 23 May, Thursday

    Time Temperature Precipitation Wind Pressure Humidity
    00:00 +16°C° 0 mm 2 mps 659 mmHg 47%
    01:00 +16°C° 0 mm 2 mps 659 mmHg 45%
    02:00 +14°C° 0 mm 3 mps 659 mmHg 41%
    03:00 +14°C° 0 mm 3 mps 659 mmHg 42%
    04:00 +13°C° 0 mm 3 mps 659 mmHg 43%
    05:00 +13°C° 0 mm 3 mps 658 mmHg 44%
    06:00 +14°C° 0 mm 3 mps 659 mmHg 43%
    07:00 +15°C° 0 mm 4 mps 660 mmHg 42%
    08:00 +16°C° 0 mm 5 mps 661 mmHg 42%
    09:00 +19°C° 0 mm 4 mps 661 mmHg 37%
    10:00 +21°C° 0 mm 4 mps 662 mmHg 32%
    11:00 +23°C° 0 mm 4 mps 662 mmHg 27%
    12:00 +25°C° 0 mm 4 mps 662 mmHg 26%
    13:00 +26°C° 0 mm 3 mps 661 mmHg 24%
    14:00 +27°C° 0 mm 3 mps 661 mmHg 22%
    15:00 +26°C° 0 mm 3 mps 660 mmHg 25%
    16:00 +25°C° 0 mm 3 mps 660 mmHg 27%
    17:00 +24°C° 0 mm 3 mps 659 mmHg 30%
    18:00 +21°C° 0 mm 2 mps 659 mmHg 35%
    19:00 +19°C° 0 mm 2 mps 659 mmHg 40%
    20:00 +17°C° 0 mm 2 mps 659 mmHg 46%
    21:00 +16°C° 0 mm 2 mps 659 mmHg 47%
    22:00 +15°C° 0 mm 2 mps 659 mmHg 49%
    23:00 +15°C° 0 mm 2 mps 659 mmHg 51%

    Tomorrow, 24 May, Friday

    Time Temperature Precipitation Wind Pressure Humidity
    00:00 +15°C° 0 mm 2 mps 659 mmHg 51%
    01:00 +14°C° 0 mm 2 mps 659 mmHg 50%
    02:00 +14°C° 0 mm 2 mps 659 mmHg 50%
    03:00 +14°C° 0 mm 2 mps 659 mmHg 53%
    04:00 +14°C° 0 mm 2 mps 659 mmHg 55%
    05:00 +14°C° 0 mm 2 mps 659 mmHg 58%
    06:00 +14°C° 0 mm 3 mps 660 mmHg 57%
    07:00 +16°C° 0 mm 3 mps 661 mmHg 57%
    08:00 +17°C° 0 mm 4 mps 661 mmHg 56%
    09:00 +19°C° 0 mm 4 mps 662 mmHg 51%
    10:00 +21°C° 0 mm 4 mps 662 mmHg 45%
    11:00 +23°C° 0 mm 4 mps 663 mmHg 40%
    12:00 +25°C° 0 mm 3 mps 662 mmHg 38%
    13:00 +26°C° 0 mm 3 mps 662 mmHg 35%
    14:00 +26°C° 0 mm 3 mps 661 mmHg 33%
    15:00 +26°C° 0 mm 3 mps 661 mmHg 36%
    16:00 +25°C° 0 mm 3 mps 660 mmHg 39%
    17:00 +24°C° 0 mm 3 mps 660 mmHg 41%
    18:00 +21°C° 0 mm 3 mps 660 mmHg 49%
    19:00 +19°C° 0 mm 2 mps 660 mmHg 56%
    20:00 +17°C° 0 mm 2 mps 660 mmHg 64%
    21:00 +16°C° 0 mm 2 mps 660 mmHg 67%
    22:00 +16°C° 0 mm 2 mps 660 mmHg 70%
    23:00 +15°C° 0 mm 1 mps 660 mmHg 73%

    Day after tomorrow, 25 May, Saturday

    Time Temperature Precipitation Wind Pressure Humidity
    00:00 +15°C° 0 mm 2 mps 660 mmHg 71%
    01:00 +15°C° 0 mm 2 mps 659 mmHg 68%
    02:00 +15°C° 0 mm 2 mps 659 mmHg 66%
    03:00 +15°C° 0 mm 2 mps 659 mmHg 68%
    04:00 +14°C° 0 mm 2 mps 659 mmHg 69%
    05:00 +14°C° 0 mm 2 mps 659 mmHg 71%
    06:00 +14°C° 0 mm 3 mps 660 mmHg 72%
    07:00 +15°C° 0 mm 4 mps 660 mmHg 72%
    08:00 +15°C° 0 mm 5 mps 661 mmHg 73%
    09:00 +16°C° 0 mm 5 mps 661 mmHg 70%
    10:00 +18°C° 0 mm 4 mps 662 mmHg 66%
    11:00 +19°C° 0 mm 4 mps 662 mmHg 63%
    12:00 +20°C° 0 mm 4 mps 661 mmHg 59%
    13:00 +21°C° 0 mm 4 mps 661 mmHg 54%
    14:00 +22°C° 0 mm 3 mps 660 mmHg 50%
    15:00 +22°C° 0 mm 3 mps 660 mmHg 50%
    16:00 +22°C° 0 mm 3 mps 660 mmHg 51%
    17:00 +21°C° 0 mm 3 mps 659 mmHg 52%
    18:00 +19°C° 0 mm 2 mps 659 mmHg 59%
    19:00 +18°C° 0 mm 2 mps 659 mmHg 66%
    20:00 +16°C° 0 mm 1 mps 659 mmHg 72%
    21:00 +15°C° 0 mm 1 mps 659 mmHg 75%
    22:00 +15°C° 0 mm 1 mps 659 mmHg 78%
    23:00 +14°C° 0 mm 1 mps 659 mmHg 81%

    26 May, Sunday

    Time Temperature Precipitation Wind Pressure Humidity
    00:00 +14°C° 0 mm 1 mps 659 mmHg 81%
    01:00 +14°C° 0 mm 1 mps 658 mmHg 82%
    02:00 +13°C° 0 mm 1 mps 658 mmHg 83%
    03:00 +13°C° 0 mm 1 mps 658 mmHg 82%
    04:00 +13°C° 0 mm 2 mps 658 mmHg 82%
    05:00 +13°C° 0 mm 2 mps 658 mmHg 81%
    06:00 +14°C° 0 mm 2 mps 659 mmHg 78%
    07:00 +14°C° 0 mm 3 mps 660 mmHg 75%
    08:00 +15°C° 0 mm 4 mps 661 mmHg 73%
    09:00 +18°C° 0 mm 4 mps 661 mmHg 64%
    10:00 +20°C° 0 mm 4 mps 661 mmHg 56%
    11:00 +22°C° 0 mm 4 mps 662 mmHg 48%
    12:00 +23°C° 0 mm 4 mps 661 mmHg 44%
    13:00 +25°C° 0 mm 3 mps 660 mmHg 41%
    14:00 +26°C° 0 mm 3 mps 660 mmHg 37%
    15:00 +25°C° 0 mm 3 mps 659 mmHg 39%
    16:00 +24°C° 0 mm 3 mps 659 mmHg 41%
    17:00 +24°C° 0 mm 3 mps 659 mmHg 43%
    18:00 +21°C° 0 mm 3 mps 659 mmHg 51%
    19:00 +19°C° 0 mm 2 mps 659 mmHg 58%
    20:00 +17°C° 0 mm 2 mps 659 mmHg 65%
    21:00 +16°C° 0 mm 2 mps 659 mmHg 68%
    22:00 +15°C° 0 mm 2 mps 659 mmHg 71%
    23:00 +15°C° 0 mm 1 mps 659 mmHg 73%

    27 May, Monday

    Time Temperature Precipitation Wind Pressure Humidity
    00:00 +14°C° 0 mm 1 mps 658 mmHg 75%
    01:00 +14°C° 0 mm 1 mps 658 mmHg 77%
    02:00 +14°C° 0 mm 1 mps 658 mmHg 79%
    03:00 +14°C° 0 mm 1 mps 658 mmHg 80%
    04:00 +13°C° 0 mm 1 mps 658 mmHg 81%
    05:00 +13°C° 0 mm 1 mps 658 mmHg 82%
    06:00 +14°C° 0 mm 2 mps 659 mmHg 77%
    07:00 +16°C° 0 mm 3 mps 659 mmHg 72%
    08:00 +17°C° 0 mm 3 mps 660 mmHg 66%
    09:00 +19°C° 0 mm 3 mps 661 mmHg 58%
    10:00 +21°C° 0 mm 3 mps 661 mmHg 50%
    11:00 +24°C° 0 mm 3 mps 661 mmHg 42%
    12:00 +25°C° 0 mm 3 mps 661 mmHg 39%
    13:00 +26°C° 0 mm 3 mps 660 mmHg 37%
    14:00 +26°C° 0 mm 3 mps 659 mmHg 34%
    15:00 +25°C° 0 mm 3 mps 659 mmHg 36%
    16:00 +24°C° 0 mm 3 mps 659 mmHg 38%
    17:00 +22°C° 0 mm 3 mps 658 mmHg 40%
    18:00 +21°C° 0 mm 2 mps 659 mmHg 45%
    19:00 +19°C° 0 mm 2 mps 659 mmHg 50%
    20:00 +18°C° 0 mm 2 mps 659 mmHg 54%
    21:00 +17°C° 0 mm 2 mps 659 mmHg 58%
    22:00 +16°C° 0 mm 1 mps 658 mmHg 61%
    23:00 +15°C° 0 mm 1 mps 658 mmHg 65%

    28 May, Tuesday

    Time Temperature Precipitation Wind Pressure Humidity
    00:00 +15°C° 0 mm 1 mps 658 mmHg 66%
    01:00 +14°C° 0 mm 1 mps 658 mmHg 67%
    02:00 +14°C° 0 mm 1 mps 658 mmHg 68%
    03:00 +14°C° 0 mm 1 mps 658 mmHg 68%
    04:00 +13°C° 0 mm 2 mps 658 mmHg 68%
    05:00 +13°C° 0 mm 2 mps 658 mmHg 68%
    06:00 +13°C° 0 mm 3 mps 659 mmHg 66%
    07:00 +16°C° 0 mm 3 mps 660 mmHg 63%
    08:00 +17°C° 0 mm 4 mps 660 mmHg 60%
    09:00 +19°C° 0 mm 4 mps 661 mmHg 53%
    10:00 +21°C° 0 mm 4 mps 661 mmHg 46%
    11:00 +23°C° 0 mm 4 mps 662 mmHg 39%
    12:00 +25°C° 0 mm 4 mps 661 mmHg 36%
    13:00 +25°C° 0 mm 4 mps 660 mmHg 33%
    14:00 +26°C° 0 mm 4 mps 660 mmHg 30%
    15:00 +25°C° 0 mm 3 mps 659 mmHg 32%
    16:00 +25°C° 0 mm 3 mps 659 mmHg 34%
    17:00 +24°C° 0 mm 3 mps 659 mmHg 35%
    18:00 +21°C° 0 mm 3 mps 659 mmHg 41%
    19:00 +18°C° 0 mm 2 mps 659 mmHg 47%
    20:00 +16°C° 0 mm 2 mps 659 mmHg 53%
    21:00 +16°C° 0 mm 2 mps 659 mmHg 55%
    22:00 +15°C° 0 mm 2 mps 659 mmHg 57%
    23:00 +15°C° 0 mm 2 mps 659 mmHg 59%
    Show more